Meteo Giornale » Osservazioni meteo Gran Bretagna » Linton-On-Ouse

ore: 06:50 - Osservazioni Meteo Linton-On-Ouse
Lat. 54° 3' N Lon. 1° 15' W Alt. 16 metri s.l.m.

nuvoloso Europe/London

14 °C

Nuvoloso

Temp. 24 Ore

5 °C

14 °C

Sud/Sud-Ovest

55.5 Km/h

Dew point 8 °C

Umidità 67 %

Visibilità  10 Km

Il sole sorge alle ore 08:01

Il sole tramonta alle ore 16:32

Data e Ora Cielo e Fenomeni T °C DP °C Um. % Pres. hPa Vis. km Vento km/h
Oggi h: 06:50 nuvoloso Nuvoloso 14 8 67 991 10 S/SO 55.5
Oggi h: 05:50 molto_nuvoloso Molto Nuvoloso 12 7 71 993 10 S 38.8
Oggi h: 04:50 molto_nuvoloso Molto Nuvoloso 11 7 76 995 10 S 37
Oggi h: 03:50 molto_nuvoloso Molto Nuvoloso 10 7 81 997 10 S 35.2
Oggi h: 02:50 molto_nuvoloso Molto Nuvoloso 10 6 76 1000 10 S 35.2
Oggi h: 01:50 molto_nuvoloso Molto Nuvoloso 10 6 76 1002 10 S 20.3
Oggi h: 00:50 poco_nuvoloso Poco Nuvoloso 9 5 75 1003 10 S/SE 20.3
Ieri h: 23:50 coperto Coperto 9 5 75 1004 10 S 20.3
Ieri h: 22:50 coperto Coperto 10 5 71 1005 10 S/SO 22.2
Ieri h: 21:50 molto_nuvoloso Molto Nuvoloso 10 5 71 1006 10 S/SO 22.2
Ieri h: 20:50 nuvoloso Nuvoloso 10 5 71 1006 10 S/SO 11.1
Ieri h: 19:50 sereno Sereno 10 6 76 1006 10 O/SO 20.3
Ieri h: 18:50 sereno Sereno 11 6 71 1005 10 O/SO 25.9
Ieri h: 17:50 poco_nuvoloso Poco Nuvoloso 11 7 76 1005 10 O/SO 25.9
Ieri h: 16:50 nuvoloso Nuvoloso 12 8 76 1004 10 SO 20.3
Ieri h: 15:50 molto_nuvoloso Molto Nuvoloso 12 9 81 1004 10 SO 25.9
Ieri h: 14:50 molto_nuvoloso Molto Nuvoloso 13 9 76 1003 10 SO 31.5
Ieri h: 13:50 molto_nuvoloso Molto Nuvoloso 13 8 71 1004 10 SO 24
Ieri h: 12:50 molto_nuvoloso Molto Nuvoloso 13 8 71 1004 10 S/SO 31.5
Ieri h: 11:50 molto_nuvoloso Molto Nuvoloso 11 9 87 1004 10 S 24
Ieri h: 10:50 molto_nuvoloso Molto Nuvoloso 9 8 93 1005 10 S/SE 24
Ieri h: 09:50 molto_nuvoloso Molto Nuvoloso 8 7 93 1006 10 S/SE 25.9
Ieri h: 08:50 molto_nuvoloso Molto Nuvoloso 8 6 87 1007 10 S 22.2
Ieri h: 07:50 coperto Coperto 6 5 93 1007 10 S/SE 22.2
Ieri h: 06:50 coperto Coperto 5 4 93 1008 10 S/SE 22.2